Home   Weather   Sedona   Past weeks
Flag for USA

Past Weather in Sedona, Arizona, USA — Yesterday and Last 2 Weeks

Now
52 °F

Clear.


Feels Like: 47 °F
Forecast: 73 / 45 °F
Wind: 15 mph from Northeast

Location: Sedona Airport

Current Time: Oct 21, 2019 at 12:38:15 am

Latest Report: Oct 20, 2019 at 11:55 pm


Visibility: 10 mi

Pressure: 30.11 "Hg (25.81 "Hg at 1282m altitude)

Humidity: 17%

Dew Point: 9 °F

Location of SedonaLocation

Past Weather in Sedona — Graph

°F

Sedona Temperature Yesterday

Maximum temperature yesterday: 72 °F (at 12:55 pm)
Minimum temperature yesterday: 50 °F (at 5:35 am)
Average temperature yesterday: 60 °F

High & Low Weather Summary for the Past Weeks

 TemperatureHumidityPressure
High86 °F (Oct 7, 2:35 pm)63% (Oct 18, 6:15 am)30.26 "Hg (Oct 18, 6:15 am)
Low43 °F (Oct 11, 4:35 am)4% (Oct 11, 2:55 pm)29.81 "Hg (Oct 17, 8:35 pm)
Average65 °F24%30.06 "Hg
* Reported Oct 5 11:15 pm — Oct 20 11:35 pm, Sedona. Weather by CustomWeather, © 2019

Note: Actual official high and low records may vary slightly from our data, if they occured in-between our weather recording intervals... More about our weather records

Advertising

Sedona Weather History for the Previous 24 Hours

Scroll right to see more
 ConditionsComfort  
Time TempWeatherWind HumidityBarometerVisibility
11:35 pm
Sun, Oct 20
52 °FClear.10 mph17%30.10 "Hg10 mi
10:55 pm54 °FClear.12 mph16%30.09 "Hg10 mi
10:35 pm54 °FClear.9 mph16%30.10 "Hg10 mi
10:15 pm54 °FClear.7 mph16%30.10 "Hg10 mi
9:55 pm54 °FClear.9 mph16%30.10 "Hg10 mi
9:35 pm54 °FClear.7 mph16%30.09 "Hg10 mi
9:15 pm55 °FClear.10 mph15%30.08 "Hg10 mi
8:55 pm55 °FClear.10 mph15%30.08 "Hg10 mi
8:35 pm55 °FClear.10 mph15%30.07 "Hg10 mi
7:55 pm59 °FClear.6 mph13%30.06 "Hg10 mi
7:35 pm61 °FClear.7 mph12%30.04 "Hg10 mi
7:15 pm61 °FClear.14 mph12%30.04 "Hg10 mi
6:55 pm61 °FClear.9 mph13%30.03 "Hg10 mi
6:35 pm63 °FClear.8 mph13%30.03 "Hg10 mi
6:15 pm63 °FClear.8 mph13%30.02 "Hg10 mi
5:55 pm63 °FClear.8 mph13%30.02 "Hg10 mi
5:15 pm68 °FSunny.10 mph10%30.00 "Hg10 mi
4:55 pm68 °FSunny.9 mph10%30.00 "Hg10 mi
4:35 pm70 °FSunny.12 mph8%30.00 "Hg10 mi
4:15 pm70 °FSunny.12 mph8%30.00 "Hg10 mi
3:55 pm72 °FSunny.15 mph7%30.00 "Hg10 mi
3:35 pm72 °FSunny.16 mph7%29.99 "Hg10 mi
3:15 pm72 °FSunny.14 mph7%29.99 "Hg10 mi
2:55 pm72 °FSunny.10 mph6%29.99 "Hg10 mi
2:35 pm72 °FSunny.7 mph6%29.99 "Hg10 mi
2:15 pm72 °FSunny.10 mph6%29.99 "Hg10 mi
1:55 pm72 °FSunny.10 mph7%30.00 "Hg10 mi
1:35 pm72 °FSunny.5 mph8%30.00 "Hg10 mi
12:55 pm72 °FSunny.8 mph15%30.00 "Hg10 mi
12:35 pm70 °FSunny.7 mph15%30.02 "Hg10 mi
12:15 pm68 °FSunny.9 mph16%30.02 "Hg10 mi
11:55 am68 °FSunny.6 mph16%30.02 "Hg10 mi
11:35 am66 °FSunny.7 mph17%30.02 "Hg10 mi
11:15 am68 °FSunny.3 mph16%30.03 "Hg10 mi
10:55 am66 °FSunny.7 mph17%30.03 "Hg10 mi
10:35 am66 °FSunny.7 mph18%30.03 "Hg10 mi
10:15 am64 °FSunny.6 mph18%30.04 "Hg10 mi
9:55 am64 °FSunny.5 mph19%30.04 "Hg10 mi
9:35 am61 °FSunny.3 mph22%30.04 "Hg10 mi
9:15 am59 °FSunny.5 mph23%30.04 "Hg10 mi
8:55 am59 °FSunny.5 mph25%30.04 "Hg7 mi
8:35 am57 °FSunny.No wind25%30.03 "Hg10 mi
8:15 am54 °FSunny.No wind26%30.02 "Hg7 mi
7:55 am52 °FSunny.No wind28%30.00 "Hg10 mi
7:35 am52 °FSunny.3 mph28%29.99 "Hg7 mi
7:15 am50 °FSunny.3 mph30%29.99 "Hg7 mi
6:55 am50 °FSunny.No wind28%29.98 "Hg7 mi
6:35 am50 °FClear.3 mph30%29.98 "Hg7 mi
6:15 am52 °FClear.No wind28%29.97 "Hg10 mi
5:55 am52 °FClear.5 mph28%29.97 "Hg10 mi
5:35 am50 °FClear.3 mph30%29.96 "Hg10 mi
5:15 am54 °FClear.No wind26%29.95 "Hg10 mi
4:55 am54 °FClear.No wind26%29.94 "Hg10 mi
4:35 am54 °FClear.No wind26%29.95 "Hg10 mi
3:55 am54 °FClear.No wind26%29.94 "Hg10 mi
3:35 am55 °FClear.No wind24%29.94 "Hg10 mi
3:15 am54 °FClear.No wind26%29.95 "Hg10 mi
2:55 am55 °FClear.No wind24%29.94 "Hg10 mi
2:35 am54 °FClear.No wind26%29.95 "Hg10 mi
1:55 am55 °FClear.5 mph24%29.95 "Hg10 mi
1:35 am55 °FClear.3 mph24%29.95 "Hg10 mi
1:15 am54 °FClear.5 mph26%29.94 "Hg10 mi
12:55 am55 °FClear.6 mph24%29.93 "Hg10 mi
12:35 am55 °FClear.7 mph24%29.94 "Hg10 mi
12:15 am57 °FClear.3 mph23%29.95 "Hg10 mi
Weather by CustomWeather, © 2019

See weather overview